| time (UTC) | temp F | wind direction | speed knots | gust knots | rain 1hr in | rain 24hr in | rain mn in | humidity % | barometer mb |
| 20260906193504 | 73 | 45 | 1.7 | 3.5 | 0.00 | 0.00 | 0.00 | 61 | 1015.4 |
| 20260906193008 | 72 | 45 | 1.7 | 3.5 | 0.00 | 0.00 | 0.00 | 60 | 1015.4 |
| 20260906192504 | 72 | 45 | 0.9 | 4.3 | 0.00 | 0.00 | 0.00 | 61 | 1015.6 |
| 20260906192004 | 72 | 338 | 1.7 | 4.3 | 0.00 | 0.00 | 0.00 | 60 | 1015.6 |
| 20260906191509 | 71 | 45 | 1.7 | 3.5 | 0.00 | 0.00 | 0.00 | 60 | 1015.6 |
| 20260906191009 | 72 | 45 | 1.7 | 3.5 | 0.00 | 0.00 | 0.00 | 58 | 1015.6 |
| 20260906190504 | 73 | 45 | 1.7 | 3.5 | 0.00 | 0.00 | 0.00 | 58 | 1015.6 |
| 20260906190004 | 73 | 45 | 0.9 | 2.6 | 0.00 | 0.00 | 0.00 | 58 | 1015.6 |
| 20260906185503 | 73 | 45 | 0.9 | 3.5 | 0.00 | 0.00 | 0.00 | 58 | 1015.7 |
| 20260906185004 | 73 | 45 | 0.9 | 3.5 | 0.00 | 0.00 | 0.00 | 58 | 1015.6 |
| 20260906184503 | 73 | 135 | 0.9 | 2.6 | 0.00 | 0.00 | 0.00 | 59 | 1015.8 |
| 20260906184009 | 73 | 113 | 0.9 | 4.3 | 0.00 | 0.00 | 0.00 | 59 | 1015.9 |
| 20260906183509 | 72 | 113 | 0.9 | 4.3 | 0.00 | 0.00 | 0.00 | 60 | 1015.8 |
| 20260906183009 | 72 | 45 | 0.9 | 3.5 | 0.00 | 0.00 | 0.00 | 60 | 1015.9 |
| 20260906182509 | 73 | 45 | 1.7 | 3.5 | 0.00 | 0.00 | 0.00 | 59 | 1015.9 |
| 20260906182009 | 74 | 135 | 1.7 | 4.3 | 0.00 | 0.00 | 0.00 | 57 | 1015.8 |
| 20260906181523 | 73 | 135 | 0.9 | 2.6 | 0.00 | 0.00 | 0.00 | 59 | 1015.8 |
| 20260906181144 | 72 | 135 | 0.9 | 3.5 | 0.00 | 0.00 | 0.00 | 60 | 1015.8 |
| 20260906180508 | 72 | 135 | 0.9 | 2.6 | 0.00 | 0.00 | 0.00 | 60 | 1015.9 |
| 20260906180004 | 71 | 135 | 0.9 | 2.6 | 0.00 | 0.00 | 0.00 | 62 | 1015.9 |
| 20260906175504 | 70 | 135 | 1.7 | 4.3 | 0.00 | 0.00 | 0.00 | 63 | 1015.8 |
| 20260906175008 | 70 | 135 | 0.9 | 3.5 | 0.00 | 0.00 | 0.00 | 63 | 1016.0 |
| 20260906174508 | 70 | 135 | 0.9 | 1.7 | 0.00 | 0.00 | 0.00 | 65 | 1015.9 |
| 20260906174004 | 69 | 45 | 0.9 | 2.6 | 0.00 | 0.00 | 0.00 | 65 | 1015.9 |
| 20260906173508 | 69 | 45 | 0.9 | 3.5 | 0.00 | 0.00 | 0.00 | 66 | 1015.9 |
| 20260906172504 | 68 | 135 | 1.7 | 3.5 | 0.00 | 0.00 | 0.00 | 67 | 1016.0 |
| 20260906172003 | 68 | 45 | 0.9 | 1.7 | 0.00 | 0.00 | 0.00 | 67 | 1016.0 |
| 20260906171508 | 68 | 45 | 0.9 | 2.6 | 0.00 | 0.00 | 0.00 | 67 | 1016.0 |
| 20260906171048 | 68 | 45 | 0.9 | 3.5 | 0.00 | 0.00 | 0.00 | 67 | 1015.9 |
| 20260906170508 | 68 | 315 | 0.9 | 2.6 | 0.00 | 0.00 | 0.00 | 68 | 1015.9 |
| 20260906170008 | 67 | 315 | 0.9 | 1.7 | 0.00 | 0.00 | 0.00 | 69 | 1015.9 |
| 20260906165503 | 67 | 45 | 0.9 | 2.6 | 0.00 | 0.00 | 0.00 | 68 | 1016.0 |
| 20260906165008 | 67 | 45 | 0.9 | 1.7 | 0.00 | 0.00 | 0.00 | 68 | 1016.0 |
| 20260906164508 | 67 | 113 | 0.9 | 1.7 | 0.00 | 0.00 | 0.00 | 69 | 1015.9 |
| 20260906164003 | 67 | 0.0 | 0.9 | 0.00 | 0.00 | 0.00 | 70 | 1015.9 | |
| 20260906163549 | 66 | 225 | 0.9 | 1.7 | 0.00 | 0.00 | 0.00 | 71 | 1016.0 |
| 20260906163008 | 66 | 0.0 | 1.7 | 0.00 | 0.00 | 0.00 | 71 | 1015.9 | |
| 20260906162529 | 66 | 135 | 0.9 | 2.6 | 0.00 | 0.00 | 0.00 | 72 | 1015.9 |
| 20260906162008 | 65 | 135 | 0.9 | 1.7 | 0.00 | 0.00 | 0.00 | 73 | 1016.0 |
| 20260906161503 | 65 | 0 | 0.9 | 1.7 | 0.00 | 0.00 | 0.00 | 74 | 1016.1 |
| 20260906161003 | 64 | 135 | 0.9 | 1.7 | 0.00 | 0.00 | 0.00 | 76 | 1016.1 |
| 20260906160529 | 64 | 158 | 0.9 | 1.7 | 0.00 | 0.00 | 0.00 | 77 | 1016.3 |
| 20260906160008 | 63 | 0.0 | 1.7 | 0.00 | 0.00 | 0.00 | 78 | 1016.1 | |
| 20260906155509 | 63 | 180 | 0.9 | 1.7 | 0.00 | 0.00 | 0.00 | 79 | 1016.2 |
| 20260906155003 | 62 | 203 | 0.9 | 1.7 | 0.00 | 0.00 | 0.00 | 80 | 1016.2 |
| 20260906154508 | 62 | 135 | 0.9 | 1.7 | 0.00 | 0.00 | 0.00 | 81 | 1016.2 |
| 20260906154003 | 61 | 135 | 0.9 | 1.7 | 0.00 | 0.00 | 0.00 | 81 | 1016.2 |
| 20260906153508 | 60 | 135 | 0.9 | 1.7 | 0.00 | 0.00 | 0.00 | 81 | 1016.4 |
| 20260906153003 | 60 | 225 | 0.9 | 1.7 | 0.00 | 0.00 | 0.00 | 81 | 1016.3 |
| 20260906152508 | 59 | 0.0 | 1.7 | 0.00 | 0.00 | 0.00 | 81 | 1016.3 | |
| 20260906152008 | 59 | 315 | 0.9 | 1.7 | 0.00 | 0.00 | 0.00 | 82 | 1016.4 |
| 20260906151508 | 58 | 315 | 0.9 | 1.7 | 0.00 | 0.00 | 0.00 | 85 | 1016.4 |
| 20260906151008 | 56 | 0.0 | 0.9 | 0.00 | 0.00 | 0.00 | 90 | 1016.3 | |
| 20260906150503 | 54 | 0.0 | 0.9 | 0.00 | 0.00 | 0.00 | 91 | 1016.2 | |
| 20260906150003 | 53 | 0.0 | 0.9 | 0.00 | 0.00 | 0.00 | 90 | 1016.3 | |
| 20260906145503 | 52 | 0.0 | 0.9 | 0.00 | 0.00 | 0.00 | 90 | 1016.3 | |
| 20260906145003 | 52 | 0.0 | 0.9 | 0.00 | 0.00 | 0.00 | 90 | 1016.2 | |
| 20260906144503 | 51 | 0.0 | 0.9 | 0.00 | 0.00 | 0.00 | 90 | 1016.1 | |
| 20260906144008 | 51 | 0.0 | 0.9 | 0.00 | 0.00 | 0.00 | 90 | 1016.1 | |
| 20260906143508 | 51 | 0.0 | 0.9 | 0.00 | 0.00 | 0.00 | 89 | 1016.0 | |
| 20260906143048 | 50 | 0.0 | 0.9 | 0.00 | 0.00 | 0.00 | 89 | 1016.0 | |
| 20260906142548 | 50 | 0.0 | 0.9 | 0.00 | 0.00 | 0.00 | 89 | 1015.9 | |
| 20260906142008 | 50 | 0.0 | 0.9 | 0.00 | 0.00 | 0.00 | 88 | 1016.0 | |
| 20260906141503 | 50 | 0.0 | 0.9 | 0.00 | 0.00 | 0.00 | 88 | 1015.8 | |
| 20260906141003 | 50 | 0.0 | 0.9 | 0.00 | 0.00 | 0.00 | 88 | 1015.8 | |
| 20260906140503 | 50 | 0.0 | 0.9 | 0.00 | 0.00 | 0.00 | 88 | 1015.9 | |
| 20260906140005 | 50 | 0.0 | 0.9 | 0.00 | 0.00 | 0.00 | 88 | 1015.8 | |
| 20260906135505 | 50 | 0.0 | 0.9 | 0.00 | 0.00 | 0.00 | 88 | 1015.8 | |
| 20260906135010 | 50 | 0.0 | 0.9 | 0.00 | 0.00 | 0.00 | 88 | 1015.7 | |
| 20260906134550 | 50 | 0.0 | 0.9 | 0.00 | 0.00 | 0.00 | 88 | 1015.7 | |
| 20260906134005 | 50 | 0.0 | 0.9 | 0.00 | 0.00 | 0.00 | 88 | 1015.6 | |
| 20260906133510 | 50 | 0.0 | 0.9 | 0.00 | 0.00 | 0.00 | 87 | 1015.6 | |
| 20260906133005 | 50 | 0.0 | 0.9 | 0.00 | 0.00 | 0.00 | 87 | 1015.6 | |
| 20260906132505 | 50 | 0.0 | 0.9 | 0.00 | 0.00 | 0.00 | 87 | 1015.5 | |
| 20260906132009 | 50 | 0.0 | 0.9 | 0.00 | 0.00 | 0.00 | 87 | 1015.4 | |
| 20260906131505 | 50 | 0.0 | 0.9 | 0.00 | 0.00 | 0.00 | 87 | 1015.4 | |
| 20260906131010 | 50 | 0.0 | 0.9 | 0.00 | 0.00 | 0.00 | 87 | 1015.3 | |
| 20260906130525 | 50 | 0.0 | 0.9 | 0.00 | 0.00 | 0.00 | 87 | 1015.3 | |
| 20260906130010 | 50 | 0.0 | 0.9 | 0.00 | 0.00 | 0.00 | 87 | 1015.4 | |
| 20260906125505 | 50 | 0.0 | 0.9 | 0.00 | 0.00 | 0.00 | 87 | 1015.4 | |
| 20260906125025 | 51 | 0.0 | 0.9 | 0.00 | 0.00 | 0.00 | 87 | 1015.3 | |
| 20260906124505 | 51 | 0.0 | 0.9 | 0.00 | 0.00 | 0.00 | 87 | 1015.2 | |
| 20260906124025 | 51 | 0.0 | 0.9 | 0.00 | 0.00 | 0.00 | 87 | 1015.3 | |
| 20260906123510 | 51 | 0.0 | 0.9 | 0.00 | 0.00 | 0.00 | 86 | 1015.3 | |
| 20260906123006 | 51 | 0.0 | 0.9 | 0.00 | 0.00 | 0.00 | 86 | 1015.3 | |
| 20260906122504 | 51 | 0.0 | 0.9 | 0.00 | 0.00 | 0.00 | 86 | 1015.2 | |
| 20260906122009 | 51 | 0.0 | 0.9 | 0.00 | 0.00 | 0.00 | 86 | 1015.3 | |
| 20260906121505 | 51 | 0.0 | 0.9 | 0.00 | 0.00 | 0.00 | 86 | 1015.3 | |
| 20260906121010 | 51 | 0.0 | 0.9 | 0.00 | 0.00 | 0.00 | 86 | 1015.2 | |
| 20260906120510 | 51 | 0.0 | 0.9 | 0.00 | 0.00 | 0.00 | 85 | 1015.3 | |
| 20260906120009 | 52 | 0.0 | 0.9 | 0.00 | 0.00 | 0.00 | 86 | 1015.2 | |
| 20260906115504 | 52 | 0.0 | 0.9 | 0.00 | 0.00 | 0.00 | 86 | 1015.3 | |
| 20260906115010 | 52 | 0.0 | 0.9 | 0.00 | 0.00 | 0.00 | 86 | 1015.2 | |
| 20260906114509 | 52 | 0.0 | 0.9 | 0.00 | 0.00 | 0.00 | 85 | 1015.2 | |
| 20260906114030 | 52 | 0.0 | 0.9 | 0.00 | 0.00 | 0.00 | 85 | 1015.2 | |
| 20260906113510 | 52 | 0.0 | 0.9 | 0.00 | 0.00 | 0.00 | 85 | 1015.2 | |
| 20260906113005 | 52 | 0.0 | 0.9 | 0.00 | 0.00 | 0.00 | 85 | 1015.2 | |
| 20260906112505 | 52 | 0.0 | 0.9 | 0.00 | 0.00 | 0.00 | 85 | 1015.1 | |
| 20260906112004 | 52 | 0.0 | 0.9 | 0.00 | 0.00 | 0.00 | 85 | 1015.2 | |
| 20260906111505 | 52 | 0.0 | 1.7 | 0.00 | 0.00 | 0.00 | 84 | 1015.1 | |
| 20260906111010 | 53 | 0.0 | 1.7 | 0.00 | 0.00 | 0.00 | 84 | 1015.0 | |
| 20260906110510 | 53 | 0.0 | 0.9 | 0.00 | 0.00 | 0.00 | 84 | 1015.0 | |
| 20260906110009 | 53 | 0.0 | 0.9 | 0.00 | 0.00 | 0.00 | 84 | 1014.9 | |
| 20260906105510 | 53 | 0.0 | 0.9 | 0.00 | 0.00 | 0.00 | 84 | 1014.8 | |
| 20260906105005 | 53 | 0.0 | 0.9 | 0.00 | 0.00 | 0.00 | 84 | 1014.8 | |
| 20260906104504 | 53 | 0.0 | 0.9 | 0.00 | 0.00 | 0.00 | 84 | 1014.9 | |
| 20260906104029 | 53 | 0.0 | 0.9 | 0.00 | 0.00 | 0.00 | 84 | 1014.9 | |
| 20260906103525 | 54 | 0.0 | 0.9 | 0.00 | 0.00 | 0.00 | 84 | 1014.9 | |
| 20260906103030 | 54 | 0.0 | 0.9 | 0.00 | 0.00 | 0.00 | 84 | 1014.9 | |
| 20260906102524 | 54 | 0.0 | 0.9 | 0.00 | 0.00 | 0.00 | 84 | 1014.9 | |
| 20260906102010 | 54 | 0.0 | 0.9 | 0.00 | 0.00 | 0.00 | 84 | 1015.0 | |
| 20260906101507 | 54 | 0.0 | 0.9 | 0.00 | 0.00 | 0.00 | 84 | 1015.0 | |
| 20260906101009 | 54 | 0.0 | 0.9 | 0.00 | 0.00 | 0.00 | 84 | 1015.0 | |
| 20260906100504 | 54 | 0.0 | 0.9 | 0.00 | 0.00 | 0.00 | 84 | 1015.0 | |
| 20260906100004 | 54 | 0.0 | 0.9 | 0.00 | 0.00 | 0.00 | 84 | 1014.9 | |
| 20260906095509 | 54 | 0.0 | 0.9 | 0.00 | 0.00 | 0.00 | 84 | 1014.9 | |
| 20260906095009 | 54 | 0.0 | 0.9 | 0.00 | 0.00 | 0.00 | 84 | 1014.9 | |
| 20260906094509 | 54 | 0.0 | 0.9 | 0.00 | 0.00 | 0.00 | 83 | 1015.1 | |
| 20260906094029 | 54 | 0.0 | 0.9 | 0.00 | 0.00 | 0.00 | 83 | 1014.9 | |
| 20260906093509 | 54 | 0.0 | 0.9 | 0.00 | 0.00 | 0.00 | 83 | 1014.9 | |
| 20260906093009 | 54 | 0.0 | 0.9 | 0.00 | 0.00 | 0.00 | 83 | 1014.9 | |
| 20260906092504 | 54 | 0.0 | 0.9 | 0.00 | 0.00 | 0.00 | 83 | 1014.8 | |
| 20260906092004 | 54 | 0.0 | 0.9 | 0.00 | 0.00 | 0.00 | 82 | 1014.9 | |
| 20260906091529 | 54 | 0.0 | 0.9 | 0.00 | 0.00 | 0.00 | 82 | 1014.9 | |
| 20260906091029 | 54 | 0.0 | 0.9 | 0.00 | 0.00 | 0.00 | 81 | 1014.8 | |
| 20260906090504 | 54 | 0.0 | 0.9 | 0.00 | 0.00 | 0.00 | 81 | 1015.0 | |
| 20260906090024 | 55 | 0.0 | 0.9 | 0.00 | 0.00 | 0.00 | 81 | 1015.1 | |
| 20260906085505 | 55 | 0.0 | 0.9 | 0.00 | 0.00 | 0.00 | 81 | 1015.1 | |
| 20260906085009 | 55 | 0.0 | 0.0 | 0.00 | 0.00 | 0.00 | 81 | 1014.9 | |
| 20260906084504 | 55 | 0.0 | 0.9 | 0.00 | 0.00 | 0.00 | 80 | 1015.1 | |
| 20260906084004 | 55 | 0.0 | 0.9 | 0.00 | 0.00 | 0.00 | 80 | 1015.1 | |
| 20260906083504 | 55 | 0.0 | 0.9 | 0.00 | 0.00 | 0.00 | 80 | 1015.1 | |
| 20260906083009 | 55 | 0.0 | 0.9 | 0.00 | 0.00 | 0.00 | 80 | 1015.0 | |
| 20260906082505 | 55 | 0.0 | 0.9 | 0.00 | 0.00 | 0.00 | 80 | 1015.0 | |
| 20260906082009 | 55 | 0.0 | 0.9 | 0.00 | 0.00 | 0.00 | 79 | 1014.9 | |
| 20260906081504 | 55 | 0.0 | 0.9 | 0.00 | 0.00 | 0.00 | 79 | 1014.9 | |
| 20260906081004 | 56 | 0.0 | 0.9 | 0.00 | 0.00 | 0.00 | 79 | 1015.0 | |
| 20260906080625 | 56 | 0.0 | 0.9 | 0.00 | 0.00 | 0.00 | 79 | 1015.0 | |
| 20260906080004 | 56 | 0.0 | 0.9 | 0.00 | 0.00 | 0.00 | 79 | 1014.9 | |
| 20260906075510 | 56 | 0.0 | 0.9 | 0.00 | 0.00 | 0.00 | 79 | 1014.9 | |
| 20260906075009 | 56 | 0.0 | 0.9 | 0.00 | 0.00 | 0.00 | 79 | 1014.9 | |
| 20260906074504 | 56 | 0.0 | 0.9 | 0.00 | 0.00 | 0.00 | 78 | 1015.1 | |
| 20260906074029 | 56 | 0.0 | 0.9 | 0.00 | 0.00 | 0.00 | 78 | 1015.0 | |
| 20260906073504 | 56 | 0.0 | 0.9 | 0.00 | 0.00 | 0.00 | 78 | 1015.0 | |
| 20260906073004 | 57 | 0.0 | 0.0 | 0.00 | 0.00 | 0.00 | 78 | 1014.9 | |
| 20260906072509 | 57 | 0.0 | 0.9 | 0.00 | 0.00 | 0.00 | 77 | 1015.0 | |
| 20260906072004 | 57 | 0.0 | 0.9 | 0.00 | 0.00 | 0.00 | 76 | 1015.0 | |
| 20260906071504 | 57 | 0.0 | 0.9 | 0.00 | 0.00 | 0.00 | 76 | 1015.0 | |
| 20260906071004 | 57 | 0.0 | 0.9 | 0.00 | 0.00 | 0.00 | 76 | 1015.1 | |
| 20260906070504 | 57 | 0.0 | 0.9 | 0.00 | 0.00 | 0.00 | 75 | 1015.0 | |
| 20260906070006 | 58 | 0.0 | 0.9 | 0.00 | 0.00 | 0.00 | 75 | 1015.0 | |
| 20260906065504 | 58 | 0.0 | 0.9 | 0.00 | 0.00 | 0.00 | 74 | 1015.0 | |
| 20260906065004 | 58 | 0.0 | 0.9 | 0.00 | 0.00 | 0.00 | 74 | 1015.0 | |
| 20260906064509 | 58 | 0.0 | 0.9 | 0.00 | 0.00 | 0.00 | 74 | 1015.2 | |
| 20260906064004 | 58 | 0.0 | 0.9 | 0.00 | 0.00 | 0.00 | 74 | 1015.0 | |
| 20260906063549 | 59 | 0.0 | 0.9 | 0.00 | 0.00 | 0.00 | 73 | 1015.1 | |
| 20260906063004 | 59 | 0.0 | 0.9 | 0.00 | 0.00 | 0.00 | 71 | 1015.2 | |
| 20260906062504 | 59 | 0.0 | 0.9 | 0.00 | 0.00 | 0.00 | 71 | 1015.2 | |
| 20260906062004 | 59 | 0.0 | 0.9 | 0.00 | 0.00 | 0.00 | 71 | 1015.3 | |
| 20260906061525 | 60 | 0.0 | 0.9 | 0.00 | 0.00 | 0.00 | 70 | 1015.2 | |
| 20260906061004 | 60 | 0.0 | 0.9 | 0.00 | 0.00 | 0.00 | 71 | 1015.4 | |
| 20260906060504 | 60 | 0.0 | 0.9 | 0.00 | 0.00 | 0.00 | 71 | 1015.3 | |
| 20260906060024 | 60 | 0.0 | 0.9 | 0.00 | 0.00 | 0.00 | 70 | 1015.4 | |
| 20260906055504 | 61 | 0.0 | 0.9 | 0.00 | 0.00 | 0.00 | 70 | 1015.4 | |
| 20260906055009 | 61 | 0.0 | 0.9 | 0.00 | 0.00 | 0.00 | 69 | 1015.4 | |
| 20260906054524 | 61 | 0.0 | 0.9 | 0.00 | 0.00 | 0.00 | 69 | 1015.4 | |
| 20260906054004 | 61 | 0.0 | 0.9 | 0.00 | 0.00 | 0.00 | 69 | 1015.4 | |
| 20260906053504 | 61 | 0.0 | 0.9 | 0.00 | 0.00 | 0.00 | 69 | 1015.5 | |
| 20260906053004 | 61 | 0.0 | 0.9 | 0.00 | 0.00 | 0.00 | 69 | 1015.5 | |
| 20260906052504 | 62 | 0.0 | 0.9 | 0.00 | 0.00 | 0.00 | 68 | 1015.6 | |
| 20260906052024 | 62 | 0.0 | 0.0 | 0.00 | 0.00 | 0.00 | 68 | 1015.6 | |
| 20260906051524 | 62 | 0.0 | 0.9 | 0.00 | 0.00 | 0.00 | 68 | 1015.6 | |
| 20260906051004 | 62 | 0.0 | 1.7 | 0.00 | 0.00 | 0.00 | 68 | 1015.7 | |
| 20260906050504 | 62 | 0.0 | 1.7 | 0.00 | 0.00 | 0.00 | 68 | 1015.7 | |
| 20260906050004 | 62 | 0.0 | 1.7 | 0.00 | 0.00 | 0.00 | 68 | 1015.6 | |
| 20260906045508 | 62 | 315 | 0.9 | 2.6 | 0.00 | 0.00 | 0.00 | 68 | 1015.6 |
| 20260906045003 | 62 | 315 | 0.9 | 2.6 | 0.00 | 0.00 | 0.00 | 69 | 1015.6 |
| 20260906044504 | 62 | 315 | 0.9 | 3.5 | 0.00 | 0.00 | 0.00 | 69 | 1015.6 |
| 20260906044004 | 62 | 315 | 0.9 | 4.3 | 0.00 | 0.00 | 0.00 | 69 | 1015.6 |
| 20260906043529 | 62 | 315 | 0.9 | 3.5 | 0.00 | 0.00 | 0.00 | 69 | 1015.6 |
| 20260906043004 | 62 | 315 | 0.9 | 2.6 | 0.00 | 0.00 | 0.00 | 69 | 1015.7 |
| 20260906042508 | 63 | 315 | 0.9 | 3.5 | 0.00 | 0.00 | 0.00 | 70 | 1015.5 |
| 20260906042009 | 63 | 338 | 0.9 | 3.5 | 0.00 | 0.00 | 0.00 | 70 | 1015.6 |
| 20260906041503 | 63 | 315 | 0.9 | 2.6 | 0.00 | 0.00 | 0.00 | 70 | 1015.4 |
| 20260906041008 | 63 | 338 | 0.9 | 2.6 | 0.00 | 0.00 | 0.00 | 69 | 1015.3 |
| 20260906040503 | 63 | 338 | 0.9 | 3.5 | 0.00 | 0.00 | 0.00 | 69 | 1015.5 |
| 20260906040004 | 63 | 0 | 0.9 | 2.6 | 0.00 | 0.00 | 0.00 | 69 | 1015.2 |
| 20260906035503 | 63 | 338 | 0.9 | 2.6 | 0.00 | 0.00 | 0.00 | 69 | 1015.1 |
| 20260906035004 | 63 | 338 | 0.9 | 2.6 | 0.00 | 0.00 | 0.00 | 69 | 1015.1 |
| 20260906034509 | 64 | 338 | 0.9 | 3.5 | 0.00 | 0.00 | 0.00 | 69 | 1015.1 |
| 20260906034008 | 64 | 338 | 0.9 | 3.5 | 0.00 | 0.00 | 0.00 | 69 | 1015.0 |
| 20260906033508 | 64 | 338 | 0.9 | 3.5 | 0.00 | 0.00 | 0.00 | 68 | 1015.0 |
| 20260906033003 | 64 | 338 | 0.9 | 2.6 | 0.00 | 0.00 | 0.00 | 68 | 1014.9 |
| 20260906032509 | 64 | 338 | 0.9 | 3.5 | 0.00 | 0.00 | 0.00 | 68 | 1014.9 |
| 20260906032008 | 64 | 338 | 0.9 | 3.5 | 0.00 | 0.00 | 0.00 | 68 | 1015.2 |
| 20260906031508 | 65 | 338 | 0.9 | 4.3 | 0.00 | 0.00 | 0.00 | 68 | 1014.7 |
| 20260906031023 | 65 | 315 | 0.9 | 1.7 | 0.00 | 0.00 | 0.00 | 68 | 1014.5 |
| 20260906030509 | 65 | 338 | 0.9 | 3.5 | 0.00 | 0.00 | 0.00 | 68 | 1014.6 |
| 20260906030004 | 65 | 338 | 0.9 | 3.5 | 0.00 | 0.00 | 0.00 | 67 | 1014.6 |
| 20260906025508 | 66 | 315 | 1.7 | 3.5 | 0.00 | 0.00 | 0.00 | 67 | 1014.5 |
| 20260906025028 | 66 | 338 | 0.9 | 2.6 | 0.00 | 0.00 | 0.00 | 66 | 1014.3 |
| 20260906024508 | 66 | 338 | 0.9 | 5.2 | 0.00 | 0.00 | 0.00 | 65 | 1014.2 |
| 20260906024008 | 66 | 338 | 1.7 | 3.5 | 0.00 | 0.00 | 0.00 | 65 | 1014.2 |
| 20260906023508 | 67 | 338 | 1.7 | 4.3 | 0.00 | 0.00 | 0.00 | 64 | 1014.2 |
| 20260906023008 | 67 | 338 | 0.9 | 3.5 | 0.00 | 0.00 | 0.00 | 64 | 1014.2 |
| 20260906022504 | 67 | 338 | 1.7 | 4.3 | 0.00 | 0.00 | 0.00 | 64 | 1014.3 |
| 20260906022008 | 67 | 0 | 0.9 | 3.5 | 0.00 | 0.00 | 0.00 | 63 | 1014.2 |
| 20260906021503 | 68 | 0 | 1.7 | 5.2 | 0.00 | 0.00 | 0.00 | 62 | 1014.2 |
| 20260906021008 | 68 | 0 | 1.7 | 3.5 | 0.00 | 0.00 | 0.00 | 61 | 1014.2 |
| 20260906020508 | 69 | 338 | 0.9 | 3.5 | 0.00 | 0.00 | 0.00 | 60 | 1014.2 |
| 20260906020003 | 70 | 45 | 1.7 | 3.5 | 0.00 | 0.00 | 0.00 | 59 | 1014.2 |
| 20260906015503 | 70 | 23 | 1.7 | 4.3 | 0.00 | 0.00 | 0.00 | 57 | 1014.1 |
| 20260906015043 | 71 | 0 | 1.7 | 4.3 | 0.00 | 0.00 | 0.00 | 55 | 1014.1 |
| 20260906014508 | 71 | 338 | 1.7 | 4.3 | 0.00 | 0.00 | 0.00 | 54 | 1014.1 |
| 20260906014008 | 71 | 315 | 0.9 | 3.5 | 0.00 | 0.00 | 0.00 | 54 | 1014.0 |
| 20260906013508 | 72 | 338 | 1.7 | 4.3 | 0.00 | 0.00 | 0.00 | 54 | 1014.0 |
| 20260906013008 | 72 | 338 | 0.9 | 4.3 | 0.00 | 0.00 | 0.00 | 54 | 1014.0 |
| 20260906012503 | 72 | 45 | 1.7 | 5.2 | 0.00 | 0.00 | 0.00 | 54 | 1013.9 |
| 20260906012008 | 72 | 338 | 0.9 | 4.3 | 0.00 | 0.00 | 0.00 | 53 | 1014.0 |
| 20260906011508 | 73 | 338 | 0.9 | 6.1 | 0.00 | 0.00 | 0.00 | 52 | 1014.0 |
| 20260906011008 | 73 | 338 | 1.7 | 6.1 | 0.00 | 0.00 | 0.00 | 52 | 1014.0 |
| 20260906010508 | 74 | 23 | 2.6 | 6.1 | 0.00 | 0.00 | 0.00 | 50 | 1013.9 |
| 20260906010003 | 75 | 0 | 1.7 | 5.2 | 0.00 | 0.00 | 0.00 | 49 | 1013.8 |
| 20260906005528 | 75 | 338 | 2.6 | 6.1 | 0.00 | 0.00 | 0.00 | 47 | 1013.9 |
| 20260906005003 | 75 | 315 | 1.7 | 5.2 | 0.00 | 0.00 | 0.00 | 45 | 1013.8 |
| 20260906004508 | 75 | 338 | 2.6 | 6.1 | 0.00 | 0.00 | 0.00 | 43 | 1013.7 |
| 20260906004028 | 76 | 338 | 1.7 | 7.0 | 0.00 | 0.00 | 0.00 | 44 | 1013.8 |
| 20260906003508 | 76 | 23 | 2.6 | 6.1 | 0.00 | 0.00 | 0.00 | 42 | 1013.7 |
| 20260906003003 | 77 | 338 | 2.6 | 8.7 | 0.00 | 0.00 | 0.00 | 41 | 1013.7 |
| 20260906002508 | 77 | 338 | 1.7 | 7.0 | 0.00 | 0.00 | 0.00 | 39 | 1013.7 |
| 20260906002008 | 78 | 338 | 1.7 | 7.8 | 0.00 | 0.00 | 0.00 | 39 | 1013.8 |
| 20260906001503 | 79 | 338 | 1.7 | 6.1 | 0.00 | 0.00 | 0.00 | 39 | 1013.7 |
| 20260906001003 | 79 | 338 | 1.7 | 5.2 | 0.00 | 0.00 | 0.00 | 39 | 1013.6 |
| 20260906000508 | 79 | 315 | 1.7 | 4.3 | 0.00 | 0.00 | 0.00 | 39 | 1013.7 |
| 20260906000003 | 79 | 315 | 1.7 | 5.2 | 0.00 | 0.00 | 0.00 | 39 | 1013.7 |
| 20260905235503 | 78 | 315 | 1.7 | 6.1 | 0.00 | 0.00 | 0.00 | 41 | 1013.6 |
| 20260905235003 | 77 | 23 | 1.7 | 4.3 | 0.00 | 0.00 | 0.00 | 46 | 1013.6 |
| 20260905234523 | 76 | 338 | 1.7 | 5.2 | 0.00 | 0.00 | 0.00 | 48 | 1013.6 |
| 20260905234008 | 76 | 45 | 2.6 | 7.0 | 0.00 | 0.00 | 0.00 | 48 | 1013.6 |
| 20260905233525 | 76 | 45 | 2.6 | 6.1 | 0.00 | 0.00 | 0.00 | 48 | 1013.7 |
| 20260905233005 | 76 | 45 | 2.6 | 7.0 | 0.00 | 0.00 | 0.00 | 48 | 1013.7 |
| 20260905232505 | 76 | 23 | 2.6 | 7.0 | 0.00 | 0.00 | 0.00 | 47 | 1013.6 |
| 20260905232010 | 76 | 0 | 1.7 | 5.2 | 0.00 | 0.00 | 0.00 | 46 | 1013.6 |
| 20260905231505 | 76 | 45 | 2.6 | 7.0 | 0.00 | 0.00 | 0.00 | 46 | 1013.6 |
| 20260905231005 | 76 | 45 | 2.6 | 7.0 | 0.00 | 0.00 | 0.00 | 46 | 1013.6 |
| 20260905230505 | 77 | 45 | 2.6 | 7.0 | 0.00 | 0.00 | 0.00 | 45 | 1013.7 |
| 20260905230003 | 77 | 23 | 2.6 | 7.8 | 0.00 | 0.00 | 0.00 | 45 | 1013.8 |
| 20260905225510 | 78 | 23 | 2.6 | 8.7 | 0.00 | 0.00 | 0.00 | 44 | 1013.9 |
| 20260905225010 | 78 | 23 | 2.6 | 7.8 | 0.00 | 0.00 | 0.00 | 44 | 1013.9 |
| 20260905224510 | 78 | 0 | 2.6 | 7.0 | 0.00 | 0.00 | 0.00 | 44 | 1014.1 |
| 20260905224009 | 78 | 23 | 2.6 | 7.0 | 0.00 | 0.00 | 0.00 | 45 | 1013.9 |
| 20260905223525 | 77 | 23 | 2.6 | 7.0 | 0.00 | 0.00 | 0.00 | 46 | 1013.9 |
| 20260905223009 | 77 | 45 | 3.5 | 8.7 | 0.00 | 0.00 | 0.00 | 48 | 1013.9 |
| 20260905222525 | 76 | 45 | 2.6 | 6.1 | 0.00 | 0.00 | 0.00 | 50 | 1013.9 |
| 20260905222010 | 76 | 45 | 2.6 | 7.0 | 0.00 | 0.00 | 0.00 | 52 | 1013.9 |
| 20260905221529 | 75 | 45 | 2.6 | 7.0 | 0.00 | 0.00 | 0.00 | 53 | 1014.0 |
| 20260905221025 | 75 | 45 | 2.6 | 6.1 | 0.00 | 0.00 | 0.00 | 54 | 1014.0 |
| 20260905220505 | 74 | 23 | 3.5 | 7.0 | 0.00 | 0.00 | 0.00 | 53 | 1014.0 |
| 20260905220009 | 74 | 23 | 3.5 | 8.7 | 0.00 | 0.00 | 0.00 | 51 | 1014.1 |
| 20260905215509 | 74 | 23 | 2.6 | 7.0 | 0.00 | 0.00 | 0.00 | 51 | 1014.2 |
| 20260905215009 | 74 | 23 | 2.6 | 7.0 | 0.00 | 0.00 | 0.00 | 53 | 1014.2 |
| 20260905214509 | 73 | 338 | 2.6 | 7.0 | 0.00 | 0.00 | 0.00 | 55 | 1014.3 |
| 20260905214010 | 73 | 23 | 3.5 | 8.7 | 0.00 | 0.00 | 0.00 | 55 | 1014.4 |
| 20260905213509 | 73 | 45 | 2.6 | 7.0 | 0.00 | 0.00 | 0.00 | 52 | 1014.3 |
| 20260905213025 | 73 | 338 | 2.6 | 6.1 | 0.00 | 0.00 | 0.00 | 49 | 1014.3 |
| 20260905212510 | 74 | 23 | 2.6 | 6.1 | 0.00 | 0.00 | 0.00 | 49 | 1014.4 |
| 20260905212009 | 74 | 45 | 1.7 | 4.3 | 0.00 | 0.00 | 0.00 | 51 | 1014.3 |
| 20260905211505 | 74 | 338 | 1.7 | 6.1 | 0.00 | 0.00 | 0.00 | 49 | 1014.5 |
| 20260905211005 | 74 | 315 | 1.7 | 5.2 | 0.00 | 0.00 | 0.00 | 49 | 1014.4 |
| 20260905210504 | 74 | 0 | 2.6 | 7.0 | 0.00 | 0.00 | 0.00 | 49 | 1014.4 |
| 20260905210010 | 74 | 45 | 1.7 | 6.1 | 0.00 | 0.00 | 0.00 | 49 | 1014.5 |
| 20260905205504 | 74 | 23 | 2.6 | 7.0 | 0.00 | 0.00 | 0.00 | 50 | 1014.4 |
| 20260905205009 | 74 | 0 | 2.6 | 6.1 | 0.00 | 0.00 | 0.00 | 50 | 1014.5 |
| 20260905204510 | 74 | 45 | 1.7 | 4.3 | 0.00 | 0.00 | 0.00 | 57 | 1014.4 |
| 20260905204010 | 73 | 0 | 1.7 | 5.2 | 0.00 | 0.00 | 0.00 | 56 | 1014.4 |
| 20260905203505 | 73 | 338 | 1.7 | 6.1 | 0.00 | 0.00 | 0.00 | 54 | 1014.4 |
| 20260905203029 | 73 | 45 | 2.6 | 6.1 | 0.00 | 0.00 | 0.00 | 53 | 1014.5 |
| 20260905202505 | 74 | 45 | 2.6 | 6.1 | 0.00 | 0.00 | 0.00 | 52 | 1014.4 |
| 20260905202009 | 74 | 45 | 1.7 | 5.2 | 0.00 | 0.00 | 0.00 | 54 | 1014.5 |
| 20260905201505 | 74 | 23 | 2.6 | 5.2 | 0.00 | 0.00 | 0.00 | 53 | 1014.5 |
| 20260905201004 | 74 | 45 | 1.7 | 6.1 | 0.00 | 0.00 | 0.00 | 55 | 1014.5 |
| 20260905200509 | 74 | 45 | 1.7 | 6.1 | 0.00 | 0.00 | 0.00 | 57 | 1014.5 |
| 20260905200009 | 73 | 45 | 1.7 | 4.3 | 0.00 | 0.00 | 0.00 | 55 | 1014.5 |
| 20260905195510 | 73 | 45 | 1.7 | 4.3 | 0.00 | 0.00 | 0.00 | 56 | 1014.5 |
| 20260905195010 | 73 | 45 | 1.7 | 4.3 | 0.00 | 0.00 | 0.00 | 56 | 1014.8 |
| 20260905194504 | 74 | 23 | 1.7 | 4.3 | 0.00 | 0.00 | 0.00 | 57 | 1014.9 |
| 20260905194010 | 74 | 45 | 1.7 | 3.5 | 0.00 | 0.00 | 0.00 | 57 | 1014.9 |